Aérodrome :
LOGIN :

S'inscrire | Disclaimer

   EN    FR    IT 

 










Légende :    VFR   VFR Marginal   IFR   IFR Intensif   IFR Très Intensif
Visi : 
Plafond : 
>= 8 km
>= 3000ft
5 à 8 km
1000 à 3000 ft
1500m à 5 km
500 à 1000 ft
800 à 1500m
200 à 500 ft
< 800m
< 200 ft
Symboles :   Orages  Brouillard  Fortes neiges  Fortes précipitations  Vent > 20 kt
SIGMETs :   Divers  Orages  Givrage  Turbulence  Onde Orograph.  Cendres Volcan.







- Altitude de l'aérodrome : 374 ft
- Code IATA : LIS


LPPT - Lisboa Portela

DERNIER METAR :
  • 230330Z 31008KT 9999 FEW012 18/15 Q1015

METARs EXPIRÉS :
  • 230300Z 31008KT 9999 FEW012 18/15 Q1015
  • 230230Z 31009KT 9999 FEW012 18/15 Q1015
  • 230200Z 31008KT 9999 FEW012 18/16 Q1015
  • 230130Z 32008KT 280V340 9999 FEW012 18/15 Q1015
  • 230100Z 31008KT 9999 FEW012 18/16 Q1015

TAF TAF LPPT
Valide du 23 à 00h jusqu'au 24 à 06h UTC


222300Z 2300/2406 31013KT 9999 SCT012
PROB40
TEMPO 2300/2308 BKN008
BECMG 2302/2305 30007KT
BECMG 2308/2311 SCT025
BECMG 2312/2314 27010KT FEW035
BECMG 2315/2317 31012KT
BECMG 2322/2401 30007KT SCT012
TEMPO 2402/2406 BKN010
Pas de NOTAMs connus pour ce terrain.



MET'MAP, la Météo Aéronautique d'un coup d'oeil ! - Copyright ORBIFLY Décembre 2007 - Disclaimer

ORBIFLY MET'MAP TEAM :

Programmation & Développement : Alexandra Zaïnal
Conception & Développement : Baudouin d'Aumeries
Co-Programmation & Développement : Marc-Olivier Méhu
Soutien technique & logistique : Manuel Goepfert

Contact : metmap@orbifly.com




SOURCES & CREDITS :

   NOAA